H1 CPF 2 NER 2025 12 15 9 349 01 glonass145 H2 2213001 9145 54031 2025 12 15 0 0 0 2025 12 18 23 45 0 900 1 1 0 0 0 1 H9 10 0 61024 0.00000 0 -10551554.414 -22267147.585 6704695.796 10 0 61024 900.00000 0 -10080749.260 -21363985.733 9694919.977 10 0 61024 1800.00000 0 -9323247.562 -20219213.541 12497399.483 10 0 61024 2700.00000 0 -8262362.680 -18888807.310 15057815.238 10 0 61024 3600.00000 0 -6893618.583 -17432927.004 17326501.315 10 0 61024 4500.00000 0 -5225208.516 -15913379.854 19259404.273 10 0 61024 5400.00000 0 -3277927.151 -14391032.813 20818937.116 10 0 61024 6300.00000 0 -1084576.854 -12923281.395 21974711.566 10 0 61024 7200.00000 0 1311129.553 -11561680.263 22704134.500 10 0 61024 8100.00000 0 3856126.332 -10349834.341 22992856.714 10 0 61024 9000.00000 0 6489950.286 -9321638.642 22835064.784 10 0 61024 9900.00000 0 9147014.958 -8499940.766 22233609.479 10 0 61024 10800.00000 0 11759110.809 -7895682.564 21199967.119 10 0 61024 11700.00000 0 14258028.703 -7507557.683 19754033.300 10 0 61024 12600.00000 0 16578198.254 -7322200.122 17923751.587 10 0 61024 13500.00000 0 18659231.332 -7314896.646 15744583.001 10 0 61024 14400.00000 0 20448264.347 -7450793.596 13258825.398 10 0 61024 15300.00000 0 21902000.752 -7686547.490 10514795.099 10 0 61024 16200.00000 0 22988367.421 -7972349.566 7565886.214 10 0 61024 17100.00000 0 23687714.521 -8254238.040 4469525.959 10 0 61024 18000.00000 0 23993507.728 -8476599.135 1286046.865 10 0 61024 18900.00000 0 23912483.214 -8584749.438 -1922501.186 10 0 61024 19800.00000 0 23464258.864 -8527488.344 -5093574.597 10 0 61024 20700.00000 0 22680418.566 -8259510.467 -8165369.916 10 0 61024 21600.00000 0 21603109.135 -7743573.871 -11078042.188 10 0 61024 22500.00000 0 20283210.337 -6952330.559 -13774882.577 10 0 61024 23400.00000 0 18778156.736 -5869740.367 -16203430.954 10 0 61024 24300.00000 0 17149504.736 -4492007.495 -18316500.963 10 0 61024 25200.00000 0 15460348.682 -2827999.531 -20073097.207 10 0 61024 26100.00000 0 13772695.804 -899131.106 -21439206.805 10 0 61024 27000.00000 0 12144910.868 1261282.891 -22388450.541 10 0 61024 27900.00000 0 10629337.746 3609177.240 -22902581.947 10 0 61024 28800.00000 0 9270196.986 6091341.017 -22971825.882 10 0 61024 29700.00000 0 8101846.215 8647409.789 -22595051.464 10 0 61024 30600.00000 0 7147474.424 11212162.317 -21779777.424 10 0 61024 31500.00000 0 6418282.755 13718026.379 -20542011.048 10 0 61024 32400.00000 0 5913183.790 16097690.114 -18905924.939 10 0 61024 33300.00000 0 5619029.708 18286711.175 -16903378.602 10 0 61024 34200.00000 0 5511357.719 20226016.391 -14573294.652 10 0 61024 35100.00000 0 5555619.769 21864189.378 -11960901.865 10 0 61024 36000.00000 0 5708843.629 23159452.402 -9116859.618 10 0 61024 36900.00000 0 5921654.696 24081261.491 -6096280.386 10 0 61024 37800.00000 0 6140573.085 24611449.724 -2957668.700 10 0 61024 38700.00000 0 6310489.280 24744872.249 238203.524 10 0 61024 39600.00000 0 6377214.287 24489527.043 3429464.175 10 0 61024 40500.00000 0 6289997.198 23866147.028 6554328.799 10 0 61024 41400.00000 0 6003904.401 22907280.827 9552286.906 10 0 61024 42300.00000 0 5481960.370 21655900.540 12365264.460 10 0 61024 43200.00000 0 4696959.728 20163594.314 14938740.785 10 0 61024 44100.00000 0 3632873.804 18488418.624 17222798.946 10 0 61024 45000.00000 0 2285791.526 16692499.166 19173089.798 10 0 61024 45900.00000 0 664353.645 14839479.662 20751691.500 10 0 61024 46800.00000 0 -1210339.895 12991924.223 21927848.118 10 0 61024 47700.00000 0 -3305347.886 11208780.928 22678573.001 10 0 61024 48600.00000 0 -5577007.800 9543011.908 22989105.016 10 0 61024 49500.00000 0 -7972513.632 8039488.519 22853208.258 10 0 61024 50400.00000 0 -10431888.257 6733239.465 22273308.552 10 0 61024 51300.00000 0 -12890270.242 5648125.259 21260463.002 10 0 61024 52200.00000 0 -15280421.516 4795994.870 19834161.869 10 0 61024 53100.00000 0 -17535352.442 4176360.437 18021965.213 10 0 61024 54000.00000 0 -19590955.294 3776604.184 15858979.973 10 0 61024 54900.00000 0 -21388536.110 3572709.289 13387186.435 10 0 61024 55800.00000 0 -22877138.445 3530484.110 10654626.301 10 0 61024 56700.00000 0 -24015560.801 3607227.956 7714467.620 10 0 61024 57600.00000 0 -24773982.016 3753767.478 4623964.781 10 0 61024 58500.00000 0 -25135125.236 3916776.495 1443334.325 10 0 61024 59400.00000 0 -25094910.687 4041279.601 -1765430.580 10 0 61024 60300.00000 0 -24662569.213 4073231.688 -4939782.570 10 0 61024 61200.00000 0 -23860211.775 3962062.104 -8017853.984 10 0 61024 62100.00000 0 -22721873.538 3663073.578 -10939676.544 10 0 61024 63000.00000 0 -21292073.685 3139592.445 -13648361.496 10 0 61024 63900.00000 0 -19623952.943 2364777.521 -16091215.897 10 0 61024 64800.00000 0 -17777068.631 1323009.946 -18220772.433 10 0 61024 65700.00000 0 -15814941.343 10804.470 -19995712.314 10 0 61024 66600.00000 0 -13802457.525 -1562796.591 -21381663.364 10 0 61024 67500.00000 0 -11803237.670 -3376363.387 -22351858.389 10 0 61024 68400.00000 0 -9877080.613 -5396746.502 -22887641.983 10 0 61024 69300.00000 0 -8077590.512 -7580244.569 -22978817.208 10 0 61024 70200.00000 0 -6450084.728 -9874222.412 -22623826.796 10 0 61024 71100.00000 0 -5029868.418 -12219112.006 -21829766.804 10 0 61024 72000.00000 0 -3840945.925 -14550712.863 -20612233.717 10 0 61024 72900.00000 0 -2895220.446 -16802696.304 -18995009.063 10 0 61024 73800.00000 0 -2192213.019 -18909210.020 -17009588.456 10 0 61024 74700.00000 0 -1719310.186 -20807475.331 -14694564.662 10 0 61024 75600.00000 0 -1452527.856 -22440270.127 -12094876.857 10 0 61024 76500.00000 0 -1357757.562 -23758195.356 -9260940.491 10 0 61024 77400.00000 0 -1392441.480 -24721631.848 -6247674.332 10 0 61024 78300.00000 0 -1507604.966 -25302307.140 -3113443.010 10 0 61024 79200.00000 0 -1650160.698 -25484407.981 81065.069 10 0 61024 80100.00000 0 -1765387.355 -25265192.897 3274003.386 10 0 61024 81000.00000 0 -1799478.598 -24655079.773 6403554.737 10 0 61024 81900.00000 0 -1702055.260 -23677204.953 9409118.176 10 0 61024 82800.00000 0 -1428535.094 -22366472.142 12232473.219 10 0 61024 83700.00000 0 -942260.361 -20768130.356 14818899.504 10 0 61024 84600.00000 0 -216293.376 -18935939.511 17118230.916 10 0 61024 85500.00000 0 765196.159 -16929999.291 19085824.295 10 0 61025 0.00000 0 2006011.387 -14814330.955 20683424.341 10 0 61025 900.00000 0 3497517.017 -12654310.645 21879909.019 10 0 61025 1800.00000 0 5218754.133 -10514063.028 22651898.989 10 0 61025 2700.00000 0 7137080.845 -8453919.219 22984221.900 10 0 61025 3600.00000 0 9209312.950 -6528047.079 22870219.775 10 0 61025 4500.00000 0 11383320.069 -4782351.221 22311893.610 10 0 61025 5400.00000 0 13600012.823 -3252730.381 21319881.142 10 0 61025 6300.00000 0 15795640.029 -1963765.061 19913266.876 10 0 61025 7200.00000 0 17904301.396 -927890.636 18119226.683 10 0 61025 8100.00000 0 19860571.517 -145090.918 15972512.483 10 0 61025 9000.00000 0 21602125.649 396874.650 13514785.780 10 0 61025 9900.00000 0 23072256.897 721719.575 10793812.140 10 0 61025 10800.00000 0 24222178.421 863386.461 7862531.726 10 0 61025 11700.00000 0 25013012.848 864363.739 4778023.951 10 0 61025 12600.00000 0 25417383.963 773635.044 1600386.906 10 0 61025 13500.00000 0 25420542.502 644349.372 -1608445.671 10 0 61025 14400.00000 0 25020977.701 531312.398 -4785925.549 10 0 61025 15300.00000 0 24230488.295 488407.196 -7870123.849 10 0 61025 16200.00000 0 23073709.933 566055.718 -10800951.931 10 0 61025 17100.00000 0 21587119.360 808830.541 -13521343.974 10 0 61025 18000.00000 0 19817558.128 1253319.744 -15978376.872 10 0 61025 18900.00000 0 17820339.140 1926336.611 -18124304.763 10 0 61025 19800.00000 0 15657016.760 2843550.777 -19917487.610 10 0 61025 20700.00000 0 13392915.281 4008599.075 -21323195.813 10 0 61025 21600.00000 0 11094520.177 5412713.664 -22314275.771 10 0 61025 22500.00000 0 8826841.698 7034882.905 -22871664.424 10 0 61025 23400.00000 0 6650860.904 8842537.889 -22984743.973 10 0 61025 24300.00000 0 4621164.010 10792735.396 -22651531.356 10 0 61025 25200.00000 0 2783862.369 12833787.509 -21878700.148 10 0 61025 26100.00000 0 1174883.028 14907269.574 -20681435.807 10 0 61025 27000.00000 0 -181301.144 16950322.775 -19083128.157 10 0 61025 27900.00000 0 -1272451.233 18898155.623 -17114907.855 10 0 61025 28800.00000 0 -2098821.939 20686640.642 -14815036.358 10 0 61025 29700.00000 0 -2672892.663 22254898.813 -12228161.404 10 0 61025 30600.00000 0 -3018583.418 23547765.009 -9404452.331 10 0 61025 31500.00000 0 -3169990.142 24518032.602 -6398631.704 10 0 61025 32400.00000 0 -3169693.778 25128384.609 -3268921.511 10 0 61025 33300.00000 0 -3066714.969 25352931.659 -75923.712 10 0 61025 34200.00000 0 -2914200.786 25178293.229 3118543.838 10 0 61025 35100.00000 0 -2766940.893 24604177.400 6252634.296 10 0 61025 36000.00000 0 -2678817.586 23643435.001 9265659.349 10 0 61025 36900.00000 0 -2700296.850 22321585.624 12099255.070 10 0 61025 37800.00000 0 -2876065.907 20675834.694 14698504.269 10 0 61025 38700.00000 0 -3242916.741 18753621.749 17012994.314 10 0 61025 39600.00000 0 -3827964.990 16610759.323 18997790.465 10 0 61025 40500.00000 0 -4647279.840 14309238.766 20614306.388 10 0 61025 41400.00000 0 -5704983.685 11914793.006 21831055.245 10 0 61025 42300.00000 0 -6992861.006 9494316.485 22624266.869 10 0 61025 43200.00000 0 -8490494.875 7113248.454 22978358.844 10 0 61025 44100.00000 0 -10165927.720 4833027.595 22886251.836 10 0 61025 45000.00000 0 -11976821.069 2708723.263 22349522.254 10 0 61025 45900.00000 0 -13872068.104 786941.622 21378388.171 10 0 61025 46800.00000 0 -15793793.658 -895906.131 19991527.490 10 0 61025 47700.00000 0 -17679659.593 -2314901.036 18215730.500 10 0 61025 48600.00000 0 -19465380.158 -3457424.656 16085392.167 10 0 61025 49500.00000 0 -21087342.419 -4323444.254 13641852.814 10 0 61025 50400.00000 0 -22485221.695 -4925262.745 10932599.062 10 0 61025 51300.00000 0 -23604481.485 -5286744.003 8010340.075 10 0 61025 52200.00000 0 -24398651.666 -5442046.608 4931976.966 10 0 61025 53100.00000 0 -24831287.706 -5433920.268 1757485.945 10 0 61025 54000.00000 0 -24877526.919 -5311638.171 -1451262.145 10 0 61025 54900.00000 0 -24525174.896 -5128654.350 -4631721.628 10 0 61025 55800.00000 0 -23775275.300 -4940087.180 -7721905.746 10 0 61025 56700.00000 0 -22642138.486 -4800137.624 -10661608.701 10 0 61025 57600.00000 0 -21152827.646 -4759553.601 -13393590.606 10 0 61025 58500.00000 0 -19346124.545 -4863249.693 -15864700.945 10 0 61025 59400.00000 0 -17271019.110 -5148184.393 -18026917.709 10 0 61025 60300.00000 0 -14984787.299 -5641585.696 -19838281.579 10 0 61025 61200.00000 0 -12550738.929 -6359600.556 -21263706.962 10 0 61025 62100.00000 0 -10035730.630 -7306425.308 -22275654.699 10 0 61025 63000.00000 0 -7507548.454 -8473953.456 -22854654.278 10 0 61025 63900.00000 0 -5032269.494 -9841955.155 -22989666.648 10 0 61025 64800.00000 0 -2671712.076 -11378780.266 -22678281.965 10 0 61025 65700.00000 0 -481079.652 -13042554.965 -21926749.852 10 0 61025 66600.00000 0 1493105.028 -14782821.337 -20749842.863 10 0 61025 67500.00000 0 3214691.545 -16542551.149 -19170556.908 10 0 61025 68400.00000 0 4659151.121 -18260449.693 -17219655.253 10 0 61025 69300.00000 0 5814334.077 -19873453.723 -14935065.449 10 0 61025 70200.00000 0 6680706.315 -21319319.714 -12361141.112 10 0 61025 71100.00000 0 7271057.329 -22539195.066 -9547802.744 10 0 61025 72000.00000 0 7609693.934 -23480065.683 -6549574.001 10 0 61025 72900.00000 0 7731155.155 -24096978.479 -3424531.572 10 0 61025 73800.00000 0 7678503.320 -24354946.714 -233188.400 10 0 61025 74700.00000 0 7501263.869 -24230459.063 2962668.775 10 0 61025 75600.00000 0 7253100.781 -23712529.665 6101165.789 10 0 61025 76500.00000 0 6989325.423 -22803245.269 9121529.126 10 0 61025 77400.00000 0 6764343.445 -21517786.253 11965253.401 10 0 61025 78300.00000 0 6629146.949 -19883919.973 14577226.389 10 0 61025 79200.00000 0 6628957.271 -17940986.531 16906790.502 10 0 61025 80100.00000 0 6801117.591 -15738418.003 18908720.739 10 0 61025 81000.00000 0 7173324.347 -13333851.328 20544100.635 10 0 61025 81900.00000 0 7762272.507 -10790911.840 21781079.574 10 0 61025 82800.00000 0 8572772.793 -8176758.111 22595496.821 10 0 61025 83700.00000 0 9597379.488 -5559488.732 22971359.999 10 0 61025 84600.00000 0 10816546.371 -3005517.580 22901168.239 10 0 61025 85500.00000 0 12199306.392 -577025.785 22386072.907 10 0 61026 0.00000 0 13704448.657 1670404.105 21435871.826 10 0 61026 900.00000 0 15282146.297 3689874.742 20068835.234 10 0 61026 1800.00000 0 16875966.696 5444891.477 18311366.824 10 0 61026 2700.00000 0 18425183.729 6910642.884 16197503.368 10 0 61026 3600.00000 0 19867293.717 8074787.467 13768262.581 10 0 61026 4500.00000 0 21140630.243 8937714.581 11070850.553 10 0 61026 5400.00000 0 22186967.259 9512268.394 8157743.655 10 0 61026 6300.00000 0 22953999.867 9822946.738 5085662.711 10 0 61026 7200.00000 0 23397596.851 9904609.236 1914459.868 10 0 61026 8100.00000 0 23483728.433 9800750.321 -1294059.278 10 0 61026 9000.00000 0 23189986.349 9561411.570 -4477354.079 10 0 61026 9900.00000 0 22506630.784 9240823.466 -7573382.413 10 0 61026 10800.00000 0 21437119.000 8894878.402 -10521823.803 10 0 61026 11700.00000 0 19998092.821 8578543.934 -13265266.690 10 0 61026 12600.00000 0 18218825.439 8343327.649 -15750335.367 10 0 61026 13500.00000 0 16140151.151 8234902.531 -17928733.719 10 0 61026 14400.00000 0 13812923.630 8290994.359 -19758184.975 10 0 61026 15300.00000 0 11296068.220 8539621.056 -21203249.185 10 0 61026 16200.00000 0 8654310.572 8997758.441 -22236003.057 10 0 61026 17100.00000 0 5955677.111 9670488.356 -22836569.851 10 0 61026 18000.00000 0 3268871.898 10550664.393 -22993490.222 10 0 61026 18900.00000 0 660638.931 11619108.492 -22703928.221 10 0 61026 19800.00000 0 -1806781.106 12845329.289 -21973709.840 10 0 61026 20700.00000 0 -4077995.098 14188731.304 -20817194.649 10 0 61026 21600.00000 0 -6106507.075 15600263.724 -19256984.154 10 0 61026 22500.00000 0 -7856390.016 17024439.412 -17323473.306 10 0 61026 23400.00000 0 -9303512.634 18401639.577 -15054254.430 10 0 61026 24300.00000 0 -10436272.556 19670607.918 -12493385.326 10 0 61026 25200.00000 0 -11255807.687 20771030.345 -9690535.662 10 0 61026 26100.00000 0 -11775679.086 21646092.930 -6700027.921 10 0 61026 27000.00000 0 -12021040.487 22244911.731 -3579791.029 10 0 61026 27900.00000 0 -12027330.640 22524733.425 -390246.292 10 0 61026 28800.00000 0 -11838544.309 22452815.136 2806853.398 10 0 61026 29700.00000 0 -11505155.063 22007905.039 5949609.359 10 0 61026 30600.00000 0 -11081777.302 21181261.766 8977165.702 10 0 61026 31500.00000 0 -10624665.721 19977169.595 11830878.409 10 0 61026 32400.00000 0 -10189157.069 18412927.123 14455442.982 10 0 61026 33300.00000 0 -9827161.486 16518308.804 16799959.551 10 0 61026 34200.00000 0 -9584808.689 14334520.382 18818915.368 10 0 61026 35100.00000 0 -9500347.931 11912690.092 20473066.167 10 0 61026 36000.00000 0 -9602390.280 9311956.629 21730199.629 10 0 61026 36900.00000 0 -9908567.757 6597231.607 22565766.223 10 0 61026 37800.00000 0 -10424666.669 3836727.743 22963365.035 10 0 61026 38700.00000 0 -11144273.012 1099353.911 22915074.662 10 0 61026 39600.00000 0 -12048946.516 -1547915.940 22421621.959 10 0 61026 40500.00000 0 -13108917.975 -4042591.600 21492384.326 10 0 61026 41400.00000 0 -14284282.450 -6329027.697 20145224.173 10 0 61026 42300.00000 0 -15526640.005 -8360498.947 18406157.421 10 0 61026 43200.00000 0 -16781116.387 -10100902.967 16308861.077 10 0 61026 44100.00000 0 -17988679.608 -11526019.286 13894028.201 10 0 61026 45000.00000 0 -19088655.242 -12624271.532 11208581.866 10 0 61026 45900.00000 0 -20021334.192 -13396960.645 8304762.830 10 0 61026 46800.00000 0 -20730562.162 -13857959.357 5239108.542 10 0 61026 47700.00000 0 -21166200.230 -14032881.144 2071343.809 10 0 61026 48600.00000 0 -21286351.070 -13957759.498 -1136794.405 10 0 61026 49500.00000 0 -21059255.074 -13677294.472 -4322773.912 10 0 61026 50400.00000 0 -20464774.666 -13242742.228 -7424500.663 10 0 61026 51300.00000 0 -19495402.805 -12709538.674 -10381542.893 10 0 61026 52200.00000 0 -18156752.108 -12134759.722 -13136320.635 10 0 61026 53100.00000 0 -16467503.486 -11574527.504 -15635236.076 10 0 61026 54000.00000 0 -14458816.364 -11081473.922 -17829721.781 10 0 61026 54900.00000 0 -12173225.540 -10702369.984 -19677185.925 10 0 61026 55800.00000 0 -9663071.535 -10476021.821 -21141836.095 10 0 61026 56700.00000 0 -6988530.749 -10431522.375 -22195366.176 10 0 61026 57600.00000 0 -4215328.301 -10586932.159 -22817493.860 10 0 61026 58500.00000 0 -1412229.277 -10948443.908 -22996339.526 10 0 61026 59400.00000 0 1351587.142 -11510065.261 -22728640.513 10 0 61026 60300.00000 0 4009162.011 -12253831.628 -22019798.016 10 0 61026 61200.00000 0 6498290.796 -13150539.180 -20883756.996 10 0 61026 62100.00000 0 8763853.598 -14160966.192 -19342722.522 10 0 61026 63000.00000 0 10759846.443 -15237530.776 -17426718.888 10 0 61026 63900.00000 0 12451031.291 -16326315.052 -15173000.586 10 0 61026 64800.00000 0 13814138.422 -17369370.763 -12625326.783 10 0 61026 65700.00000 0 14838573.436 -18307209.877 -9833113.320 10 0 61026 66600.00000 0 15526601.533 -19081376.103 -6850478.395 10 0 61026 67500.00000 0 15893003.304 -19636990.061 -3735199.985 10 0 61026 68400.00000 0 15964218.016 -19925161.940 -547604.572 10 0 61026 69300.00000 0 15777011.414 -19905170.920 2650591.916 10 0 61026 70200.00000 0 15376724.629 -19546320.300 5797469.245 10 0 61026 71100.00000 0 14815178.014 -18829390.578 8832091.893 10 0 61026 72000.00000 0 14148317.896 -17747629.274 11695679.649 10 0 61026 72900.00000 0 13433704.847 -16307235.344 14332737.837 10 0 61026 73800.00000 0 12727948.582 -14527316.770 16692126.024 10 0 61026 74700.00000 0 12084196.845 -12439321.645 18728045.031 10 0 61026 75600.00000 0 11549783.437 -10085964.657 20400923.695 10 0 61026 76500.00000 0 11164134.083 -7519691.690 21678188.496 10 0 61026 77400.00000 0 10957018.263 -4800744.388 22534901.220 10 0 61026 78300.00000 0 10947220.959 -1994903.075 22954252.147 10 0 61026 79200.00000 0 11141691.008 829000.038 22927898.731 10 0 61026 80100.00000 0 11535203.047 3601695.655 22456142.410 10 0 61026 81000.00000 0 12110548.752 6256112.773 21547939.085 10 0 61026 81900.00000 0 12839250.900 8729925.937 20220741.772 10 0 61026 82800.00000 0 13682771.815 10967908.726 18500177.107 10 0 61026 83700.00000 0 14594166.653 12923995.488 16419560.604 10 0 61026 84600.00000 0 15520112.902 14562965.002 14019258.807 10 0 61026 85500.00000 0 16403231.007 15861675.307 11345909.802 10 0 61027 0.00000 0 17184598.065 16809797.479 8451516.904 10 0 61027 900.00000 0 17806348.207 17410017.805 5392431.471 10 0 61027 1800.00000 0 18214247.589 17677698.689 2228248.934 10 0 61027 2700.00000 0 18360134.993 17640014.736 -979364.721 10 0 61027 3600.00000 0 18204122.006 17334599.998 -4167888.124 10 0 61027 4500.00000 0 17716458.389 16807765.368 -7275177.613 10 0 61027 5400.00000 0 16878982.111 16112363.036 -10240692.337 10 0 61027 6300.00000 0 15686091.449 15305390.084 -13006685.977 10 0 61027 7200.00000 0 14145197.251 14445434.415 -15519340.479 10 0 61027 8100.00000 0 12276635.804 13590072.663 -17729818.753 10 0 61027 9000.00000 0 10113045.874 12793331.321 -19595215.392 10 0 61027 9900.00000 0 7698236.327 12103319.164 -21079386.807 10 0 61027 10800.00000 0 5085592.163 11560131.085 -22153645.172 10 0 61027 11700.00000 0 2336086.057 11194111.464 -22797303.536 10 0 61027 12600.00000 0 -484021.275 11024549.344 -22998062.713 10 0 61027 13500.00000 0 -3305696.000 11058859.186 -22752233.770 10 0 61027 14400.00000 0 -6059757.077 11292280.149 -22064793.224 10 0 61027 15300.00000 0 -8679504.655 11708105.072 -20949271.152 10 0 61027 16200.00000 0 -11103242.957 12278428.079 -19427475.519 10 0 61027 17100.00000 0 -13276594.373 12965378.208 -17529058.883 10 0 61027 18000.00000 0 -15154510.447 13722786.390 -15290936.452 10 0 61027 18900.00000 0 -16702898.207 14498215.212 -12756567.009 10 0 61027 19800.00000 0 -17899796.277 15235266.074 -9975110.574 10 0 61027 20700.00000 0 -18736053.822 15876066.931 -7000478.900 10 0 61027 21600.00000 0 -19215485.886 16363836.477 -3890296.738 10 0 61027 22500.00000 0 -19354500.250 16645417.496 -704793.391 10 0 61027 23400.00000 0 -19181212.617 16673673.402 2494354.589 10 0 61027 24300.00000 0 -18734088.063 16409647.657 5645207.875 10 0 61027 25200.00000 0 -18060166.087 15824395.473 8686753.816 10 0 61027 26100.00000 0 -17212943.780 14900410.727 11560078.535 10 0 61027 27000.00000 0 -16250005.695 13632587.643 14209499.719 10 0 61027 27900.00000 0 -15230499.403 12028675.904 16583638.849 10 0 61027 28800.00000 0 -14212562.136 10109208.726 18636412.705 10 0 61027 29700.00000 0 -13250805.935 7906905.042 20327925.449 10 0 61027 30600.00000 0 -12393966.383 5465568.638 21625244.348 10 0 61027 31500.00000 0 -11682813.355 2838527.833 22503044.201 10 0 61027 32400.00000 0 -11148411.516 86678.334 22944107.831 10 0 61027 33300.00000 0 -10810803.925 -2723791.546 22939672.510 10 0 61027 34200.00000 0 -10678174.763 -5523900.663 22489614.789 10 0 61027 35100.00000 0 -10746527.328 -8244497.480 21602469.150 10 0 61027 36000.00000 0 -10999892.010 -10818897.296 20295278.828 10 0 61027 36900.00000 0 -11411056.777 -13185425.098 18593280.332 10 0 61027 37800.00000 0 -11942790.531 -15289758.371 16529426.383 10 0 61027 38700.00000 0 -12549508.748 -17086971.902 14143755.304 10 0 61027 39600.00000 0 -13179311.579 -18543198.687 11482618.114 10 0 61027 40500.00000 0 -13776308.441 -19636836.831 8597777.780 10 0 61027 41400.00000 0 -14283130.296 -20359251.355 5545397.980 10 0 61027 42300.00000 0 -14643522.341 -20714941.093 2384941.460 10 0 61027 43200.00000 0 -14804905.934 -20721163.752 -821999.730 10 0 61027 44100.00000 0 -14720799.549 -20407035.421 -4012918.108 10 0 61027 45000.00000 0 -14352994.418 -19812143.481 -7125623.542 10 0 61027 45900.00000 0 -13673390.996 -18984732.828 -10099469.286 10 0 61027 46800.00000 0 -12665417.015 -17979543.645 -12876545.860 10 0 61027 47700.00000 0 -11324965.996 -16855393.827 -15402818.068 10 0 61027 48600.00000 0 -9660815.820 -15672609.836 -17629182.109 10 0 61027 49500.00000 0 -7694509.291 -14490415.808 -19512421.644 10 0 61027 50400.00000 0 -5459701.691 -13364392.044 -21016044.175 10 0 61027 51300.00000 0 -3001002.845 -12344110.415 -22110981.934 10 0 61027 52200.00000 0 -372362.475 -11471046.052 -22776144.548 10 0 61027 53100.00000 0 2364933.418 -10776852.457 -22998813.885 10 0 61027 54000.00000 0 5144571.482 -10282071.276 -22774874.786 10 0 61027 54900.00000 0 7897729.289 -9995329.327 -22108878.589 10 0 61027 55800.00000 0 10555698.678 -9913054.819 -21013939.498 10 0 61027 56700.00000 0 13052506.020 -10019722.815 -19511466.937 10 0 61027 57600.00000 0 15327421.793 -10288617.992 -17630739.893 10 0 61027 58500.00000 0 17327256.667 -10683081.211 -15408332.085 10 0 61027 59400.00000 0 19008350.449 -11158186.511 -12887399.338 10 0 61027 60300.00000 0 20338173.003 -11662777.403 -10116842.950 10 0 61027 61200.00000 0 21296472.349 -12141776.555 -7150365.025 10 0 61027 62100.00000 0 21875923.827 -12538671.835 -4045433.657 10 0 61027 63000.00000 0 22082254.802 -12798074.364 -862177.390 10 0 61027 63900.00000 0 21933840.883 -12868241.371 2337770.207 10 0 61027 64800.00000 0 21460791.462 -12703458.070 5492454.235 10 0 61027 65700.00000 0 20703563.300 -12266178.585 8540788.217 10 0 61027 66600.00000 0 19711160.356 -11528835.879 11423727.602 10 0 61027 67500.00000 0 18538995.060 -10475244.251 14085405.020 10 0 61027 68400.00000 0 17246500.151 -9101534.666 16474206.013 10 0 61027 69300.00000 0 15894590.524 -7416582.440 18543764.982 10 0 61027 70200.00000 0 14543080.688 -5441907.649 20253862.609 10 0 61027 71100.00000 0 13248165.358 -3211050.288 21571207.675 10 0 61027 72000.00000 0 12060068.193 -768443.952 22470088.269 10 0 61027 72900.00000 0 11020956.847 1832167.523 22932879.615 10 0 61027 73800.00000 0 10163211.664 4529706.962 22950398.244 10 0 61027 74700.00000 0 9508120.863 7258054.225 22522094.886 10 0 61027 75600.00000 0 9065057.484 9948556.712 21656081.322 10 0 61027 76500.00000 0 8831173.419 12532656.970 20368989.419 10 0 61027 77400.00000 0 8791624.285 14944528.945 18685663.694 10 0 61027 78300.00000 0 8920316.575 17123613.415 16638692.005 10 0 61027 79200.00000 0 9181146.329 19016946.790 14267782.191 10 0 61027 80100.00000 0 9529677.575 20581185.441 11618995.809 10 0 61027 81000.00000 0 9915189.642 21784240.198 8743853.226 10 0 61027 81900.00000 0 10283006.427 22606451.720 5698327.319 10 0 61027 82800.00000 0 10577008.066 23041256.733 2541745.744 10 0 61027 83700.00000 0 10742217.321 23095316.807 -664376.034 10 0 61027 84600.00000 0 10727349.401 22788104.285 -3857547.018 10 0 61027 85500.00000 0 10487215.318 22150963.372 -6975533.081 99